Time,TemperatureF,DewpointF,PressureIn,WindDirection,WindDirectionDegrees,WindSpeedMPH,WindSpeedGustMPH,Humidity,HourlyPrecipIn,Conditions,Clouds,dailyrainin,SolarRadiationWatts/m^2,SoftwareType,DateUTC
2013-03-18 00:00:00,68.8,65.1,29.69,SW,217,12.0,12.0,88,0.00,,,0.00,0.00,VWS V14.00,2013-03-18 05:00:00,
2013-03-18 00:05:00,68.8,65.1,29.69,SSW,200,1.0,5.0,88,0.00,,,0.00,0.00,VWS V14.00,2013-03-18 05:05:00,
2013-03-18 00:10:00,68.8,65.1,29.69,SSW,209,0.0,0.0,88,0.00,,,0.00,0.00,VWS V14.00,2013-03-18 05:10:00,
2013-03-18 00:15:00,68.8,65.1,29.69,SSW,211,1.0,1.0,88,0.00,,,0.00,0.00,VWS V14.00,2013-03-18 05:15:00,
2013-03-18 00:20:00,68.7,65.0,29.69,SW,218,0.0,0.0,88,0.00,,,0.00,0.00,VWS V14.00,2013-03-18 05:20:00,
2013-03-18 00:25:00,68.6,65.2,29.69,SSW,207,12.0,12.0,89,0.00,,,0.00,0.00,VWS V14.00,2013-03-18 05:25:00,
2013-03-18 00:30:00,68.5,65.1,29.69,SW,229,12.0,15.0,89,0.00,,,0.00,0.00,VWS V14.00,2013-03-18 05:30:00,
2013-03-18 00:35:00,68.4,65.0,29.69,South,182,0.0,12.0,89,0.00,,,0.00,0.00,VWS V14.00,2013-03-18 05:35:00,
2013-03-18 00:40:00,68.3,64.9,29.69,SW,231,0.0,10.0,89,0.00,,,0.00,0.00,VWS V14.00,2013-03-18 05:40:00,
2013-03-18 00:45:00,68.2,64.8,29.69,SW,214,12.0,16.0,89,0.00,,,0.00,0.00,VWS V14.00,2013-03-18 05:45:00,
2013-03-18 00:50:00,68.2,64.8,29.69,SW,215,0.0,10.0,89,0.00,,,0.00,0.00,VWS V14.00,2013-03-18 05:50:00,
2013-03-18 00:55:00,68.2,64.8,29.69,SW,224,10.0,10.0,89,0.00,,,0.00,0.00,VWS V14.00,2013-03-18 05:55:00,
2013-03-18 01:00:00,68.1,64.7,29.69,SW,224,13.0,16.0,89,0.00,,,0.00,0.00,VWS V14.00,2013-03-18 06:00:00,
2013-03-18 01:05:00,68.1,64.7,29.69,SSW,203,0.0,7.0,89,0.00,,,0.00,0.00,VWS V14.00,2013-03-18 06:05:00,
2013-03-18 01:10:00,68.2,64.8,29.69,SSW,208,4.0,10.0,89,0.00,,,0.00,0.00,VWS V14.00,2013-03-18 06:10:00,
2013-03-18 01:15:00,68.1,64.7,29.69,SSW,213,0.0,0.0,89,0.00,,,0.00,0.00,VWS V14.00,2013-03-18 06:15:00,
2013-03-18 01:20:00,68.2,64.8,29.69,SSW,211,0.0,0.0,89,0.00,,,0.00,0.00,VWS V14.00,2013-03-18 06:20:00,
2013-03-18 01:25:00,68.2,64.8,29.69,SSW,205,0.0,0.0,89,0.00,,,0.00,0.00,VWS V14.00,2013-03-18 06:25:00,
2013-03-18 01:30:00,68.2,64.8,29.69,SW,221,0.0,0.0,89,0.00,,,0.00,0.00,VWS V14.00,2013-03-18 06:30:00,
2013-03-18 01:35:00,68.2,65.2,29.69,SW,219,0.0,0.0,90,0.00,,,0.00,0.00,VWS V14.00,2013-03-18 06:35:00,
2013-03-18 01:40:00,68.3,65.3,29.69,SW,218,4.0,7.0,90,0.00,,,0.00,0.00,VWS V14.00,2013-03-18 06:40:00,
2013-03-18 01:45:00,68.2,65.2,29.69,SW,217,0.0,0.0,90,0.00,,,0.00,0.00,VWS V14.00,2013-03-18 06:45:00,
2013-03-18 01:50:00,68.1,64.7,29.70,SW,217,0.0,0.0,89,0.00,,,0.00,0.00,VWS V14.00,2013-03-18 06:50:00,
2013-03-18 01:55:00,67.9,64.5,29.70,SW,217,0.0,0.0,89,0.00,,,0.00,0.00,VWS V14.00,2013-03-18 06:55:00,
2013-03-18 02:00:00,67.7,64.7,29.70,SW,217,0.0,0.0,90,0.00,,,0.00,0.00,VWS V14.00,2013-03-18 07:00:00,
2013-03-18 02:05:00,67.5,64.5,29.70,SW,217,0.0,0.0,90,0.00,,,0.00,0.00,VWS V14.00,2013-03-18 07:05:00,
2013-03-18 02:10:00,67.4,64.4,29.70,SW,217,0.0,0.0,90,0.00,,,0.00,0.00,VWS V14.00,2013-03-18 07:10:00,
2013-03-18 02:14:00,67.4,64.4,29.70,SW,217,0.0,0.0,90,0.00,,,0.00,0.00,VWS V14.00,2013-03-18 07:14:00,
2013-03-18 02:19:00,67.4,64.4,29.71,SW,217,0.0,0.0,90,0.00,,,0.00,0.00,VWS V14.00,2013-03-18 07:19:00,
2013-03-18 02:24:00,67.4,64.4,29.71,SW,217,0.0,0.0,90,0.00,,,0.00,0.00,VWS V14.00,2013-03-18 07:24:00,
2013-03-18 02:29:00,67.5,64.5,29.71,SW,223,0.0,0.0,90,0.00,,,0.00,0.00,VWS V14.00,2013-03-18 07:29:00,
2013-03-18 02:34:00,67.5,64.5,29.72,WSW,252,0.0,0.0,90,0.00,,,0.00,0.00,VWS V14.00,2013-03-18 07:34:00,
2013-03-18 02:39:00,67.6,64.6,29.72,SW,223,0.0,0.0,90,0.00,,,0.00,0.00,VWS V14.00,2013-03-18 07:39:00,
2013-03-18 02:44:00,67.7,64.3,29.72,SW,229,5.0,7.0,89,0.00,,,0.00,0.00,VWS V14.00,2013-03-18 07:44:00,
2013-03-18 02:49:00,67.8,64.4,29.72,SW,226,6.0,12.0,89,0.00,,,0.00,0.00,VWS V14.00,2013-03-18 07:49:00,
2013-03-18 02:54:00,67.8,64.4,29.72,SW,236,0.0,0.0,89,0.00,,,0.00,0.00,VWS V14.00,2013-03-18 07:54:00,
2013-03-18 02:59:00,67.9,64.5,29.72,WSW,244,0.0,0.0,89,0.00,,,0.00,0.00,VWS V14.00,2013-03-18 07:59:00,
2013-03-18 03:04:00,67.9,64.5,29.72,WSW,246,0.0,0.0,89,0.00,,,0.00,0.00,VWS V14.00,2013-03-18 08:04:00,
2013-03-18 03:09:00,67.9,64.2,29.72,WSW,250,0.0,0.0,88,0.00,,,0.00,0.00,VWS V14.00,2013-03-18 08:09:00,
2013-03-18 03:14:00,68.0,64.3,29.72,West,261,1.0,8.0,88,0.00,,,0.00,0.00,VWS V14.00,2013-03-18 08:14:00,
2013-03-18 03:19:00,68.0,64.3,29.72,WSW,240,0.0,0.0,88,0.00,,,0.00,0.00,VWS V14.00,2013-03-18 08:19:00,
2013-03-18 03:24:00,68.0,64.3,29.72,WSW,252,4.0,5.0,88,0.00,,,0.00,0.00,VWS V14.00,2013-03-18 08:24:00,
2013-03-18 03:29:00,68.0,64.3,29.72,WSW,256,0.0,0.0,88,0.00,,,0.00,0.00,VWS V14.00,2013-03-18 08:29:00,
2013-03-18 03:34:00,67.9,64.2,29.72,WSW,242,0.0,0.0,88,0.00,,,0.00,0.00,VWS V14.00,2013-03-18 08:34:00,
2013-03-18 03:39:00,67.9,64.2,29.72,SW,234,0.0,0.0,88,0.00,,,0.00,0.00,VWS V14.00,2013-03-18 08:39:00,
2013-03-18 03:44:00,67.9,64.2,29.72,WSW,252,0.0,5.0,88,0.00,,,0.00,0.00,VWS V14.00,2013-03-18 08:44:00,
2013-03-18 03:49:00,67.9,64.2,29.72,WSW,250,0.0,0.0,88,0.00,,,0.00,0.00,VWS V14.00,2013-03-18 08:49:00,
2013-03-18 03:54:00,67.9,64.2,29.72,WSW,253,1.0,7.0,88,0.00,,,0.00,0.00,VWS V14.00,2013-03-18 08:54:00,
2013-03-18 03:59:00,67.9,64.2,29.72,WSW,257,1.0,8.0,88,0.00,,,0.00,0.00,VWS V14.00,2013-03-18 08:59:00,
2013-03-18 04:04:00,67.9,64.2,29.71,SW,229,0.0,4.0,88,0.00,,,0.00,0.00,VWS V14.00,2013-03-18 09:04:00,
2013-03-18 04:09:00,67.9,64.2,29.71,WSW,246,3.0,3.0,88,0.00,,,0.00,0.00,VWS V14.00,2013-03-18 09:09:00,
2013-03-18 04:14:00,67.9,64.5,29.71,WSW,249,0.0,8.0,89,0.00,,,0.00,0.00,VWS V14.00,2013-03-18 09:14:00,
2013-03-18 04:19:00,68.0,64.6,29.71,SW,223,12.0,12.0,89,0.00,,,0.00,0.00,VWS V14.00,2013-03-18 09:19:00,
2013-03-18 04:24:00,68.0,64.6,29.71,WSW,244,0.0,0.0,89,0.00,,,0.00,0.00,VWS V14.00,2013-03-18 09:24:00,
2013-03-18 04:29:00,68.0,64.3,29.71,WSW,242,0.0,0.0,88,0.00,,,0.00,0.00,VWS V14.00,2013-03-18 09:29:00,
2013-03-18 04:34:00,68.0,64.3,29.71,WSW,244,0.0,0.0,88,0.00,,,0.00,0.00,VWS V14.00,2013-03-18 09:34:00,
2013-03-18 04:39:00,68.0,64.3,29.71,WSW,247,0.0,10.0,88,0.00,,,0.00,0.00,VWS V14.00,2013-03-18 09:39:00,
2013-03-18 04:44:00,68.0,64.3,29.71,West,263,0.0,0.0,88,0.00,,,0.00,0.00,VWS V14.00,2013-03-18 09:44:00,
2013-03-18 04:49:00,68.0,64.3,29.72,West,260,7.0,9.0,88,0.00,,,0.00,0.00,VWS V14.00,2013-03-18 09:49:00,
2013-03-18 04:54:00,68.0,64.6,29.72,WSW,257,10.0,10.0,89,0.00,,,0.00,0.00,VWS V14.00,2013-03-18 09:54:00,
2013-03-18 04:59:00,68.0,64.6,29.72,WSW,255,1.0,6.0,89,0.00,,,0.00,0.00,VWS V14.00,2013-03-18 09:59:00,
2013-03-18 05:04:00,68.0,64.6,29.71,SW,216,0.0,0.0,89,0.00,,,0.00,0.00,VWS V14.00,2013-03-18 10:04:00,
2013-03-18 05:09:00,68.0,64.6,29.71,WSW,250,0.0,0.0,89,0.00,,,0.00,0.00,VWS V14.00,2013-03-18 10:09:00,
2013-03-18 05:14:00,68.0,64.6,29.71,WSW,252,1.0,9.0,89,0.00,,,0.00,0.00,VWS V14.00,2013-03-18 10:14:00,
2013-03-18 05:19:00,68.0,64.6,29.72,WSW,250,1.0,1.0,89,0.00,,,0.00,0.00,VWS V14.00,2013-03-18 10:19:00,
2013-03-18 05:24:00,68.0,64.6,29.72,West,262,0.0,0.0,89,0.00,,,0.00,0.00,VWS V14.00,2013-03-18 10:24:00,
2013-03-18 05:29:00,68.0,64.6,29.72,SW,225,0.0,0.0,89,0.00,,,0.00,0.00,VWS V14.00,2013-03-18 10:29:00,
2013-03-18 05:34:00,67.9,64.5,29.72,WSW,250,0.0,0.0,89,0.00,,,0.00,0.00,VWS V14.00,2013-03-18 10:34:00,
2013-03-18 05:39:00,67.9,64.5,29.72,WSW,253,0.0,0.0,89,0.00,,,0.00,0.00,VWS V14.00,2013-03-18 10:39:00,
2013-03-18 05:44:00,67.7,64.3,29.72,WSW,256,0.0,0.0,89,0.00,,,0.00,0.00,VWS V14.00,2013-03-18 10:44:00,
2013-03-18 05:49:00,67.6,64.2,29.72,WSW,250,0.0,0.0,89,0.00,,,0.00,0.00,VWS V14.00,2013-03-18 10:49:00,
2013-03-18 05:54:00,67.4,64.1,29.72,WSW,249,0.0,0.0,89,0.00,,,0.00,0.00,VWS V14.00,2013-03-18 10:54:00,
2013-03-18 05:59:00,67.3,64.0,29.72,West,259,1.0,7.0,89,0.00,,,0.00,0.00,VWS V14.00,2013-03-18 10:59:00,
2013-03-18 06:04:00,67.1,63.8,29.72,West,259,12.0,12.0,89,0.00,,,0.00,0.00,VWS V14.00,2013-03-18 11:04:00,
2013-03-18 06:09:00,67.0,64.0,29.72,WSW,251,0.0,0.0,90,0.00,,,0.00,0.00,VWS V14.00,2013-03-18 11:09:00,
2013-03-18 06:14:00,66.9,63.9,29.72,WSW,249,0.0,0.0,90,0.00,,,0.00,0.00,VWS V14.00,2013-03-18 11:14:00,
2013-03-18 06:19:00,66.7,63.7,29.73,WSW,252,0.0,13.0,90,0.00,,,0.00,0.00,VWS V14.00,2013-03-18 11:19:00,
2013-03-18 06:24:00,66.6,63.6,29.73,West,262,0.0,0.0,90,0.00,,,0.00,0.00,VWS V14.00,2013-03-18 11:24:00,
2013-03-18 06:29:00,66.5,63.5,29.73,West,259,6.0,6.0,90,0.00,,,0.00,0.00,VWS V14.00,2013-03-18 11:29:00,
2013-03-18 06:34:00,66.4,63.4,29.73,WSW,257,0.0,0.0,90,0.00,,,0.00,0.00,VWS V14.00,2013-03-18 11:34:00,
2013-03-18 06:39:00,66.3,63.6,29.73,West,263,0.0,0.0,91,0.00,,,0.00,0.00,VWS V14.00,2013-03-18 11:39:00,
2013-03-18 06:44:00,66.3,63.6,29.73,WSW,256,0.0,0.0,91,0.00,,,0.00,0.00,VWS V14.00,2013-03-18 11:44:00,
2013-03-18 06:49:00,66.2,63.5,29.73,WSW,256,0.0,0.0,91,0.00,,,0.00,0.00,VWS V14.00,2013-03-18 11:49:00,
2013-03-18 06:54:00,66.1,63.4,29.73,WSW,256,0.0,7.0,91,0.00,,,0.00,0.00,VWS V14.00,2013-03-18 11:54:00,
2013-03-18 06:59:00,66.1,63.4,29.73,West,269,9.0,9.0,91,0.00,,,0.00,0.00,VWS V14.00,2013-03-18 11:59:00,
2013-03-18 07:04:00,66.0,63.3,29.74,WSW,246,0.0,0.0,91,0.00,,,0.00,0.00,VWS V14.00,2013-03-18 12:04:00,
2013-03-18 07:09:00,66.0,63.3,29.74,WSW,254,0.0,8.0,91,0.00,,,0.00,0.00,VWS V14.00,2013-03-18 12:09:00,
2013-03-18 07:14:00,66.0,63.3,29.74,WSW,246,2.0,6.0,91,0.00,,,0.00,0.00,VWS V14.00,2013-03-18 12:14:00,
2013-03-18 07:19:00,66.0,63.3,29.75,WSW,247,0.0,0.0,91,0.00,,,0.00,0.00,VWS V14.00,2013-03-18 12:19:00,
2013-03-18 07:24:00,65.9,63.2,29.75,SW,230,0.0,0.0,91,0.00,,,0.00,0.00,VWS V14.00,2013-03-18 12:24:00,
2013-03-18 07:29:00,65.9,63.2,29.75,WSW,252,0.0,0.0,91,0.00,,,0.00,0.00,VWS V14.00,2013-03-18 12:29:00,
2013-03-18 07:34:00,65.8,63.1,29.75,West,262,0.0,0.0,91,0.00,,,0.00,0.00,VWS V14.00,2013-03-18 12:34:00,
2013-03-18 07:39:00,65.7,63.0,29.75,WSW,249,12.0,12.0,91,0.00,,,0.00,0.00,VWS V14.00,2013-03-18 12:39:00,
2013-03-18 07:44:00,65.6,62.9,29.75,WSW,240,2.0,10.0,91,0.00,,,0.00,5.00,VWS V14.00,2013-03-18 12:44:00,
2013-03-18 07:49:00,65.5,62.8,29.75,WSW,251,0.0,0.0,91,0.00,,,0.00,9.00,VWS V14.00,2013-03-18 12:49:00,
2013-03-18 07:54:00,65.4,62.7,29.75,WSW,248,8.0,10.0,91,0.00,,,0.00,16.00,VWS V14.00,2013-03-18 12:54:00,
2013-03-18 07:59:00,65.4,62.7,29.75,WSW,257,0.0,3.0,91,0.00,,,0.00,23.00,VWS V14.00,2013-03-18 12:59:00,
2013-03-18 08:04:00,65.5,62.8,29.75,West,263,0.0,11.0,91,0.00,,,0.00,28.00,VWS V14.00,2013-03-18 13:04:00,
2013-03-18 08:09:00,65.7,63.0,29.75,WSW,253,9.0,9.0,91,0.00,,,0.00,35.00,VWS V14.00,2013-03-18 13:09:00,
2013-03-18 08:14:00,65.8,63.1,29.75,West,260,0.0,0.0,91,0.00,,,0.00,42.00,VWS V14.00,2013-03-18 13:14:00,
2013-03-18 08:19:00,65.9,63.2,29.76,West,261,4.0,5.0,91,0.00,,,0.00,51.00,VWS V14.00,2013-03-18 13:19:00,
2013-03-18 08:24:00,66.1,63.4,29.76,WSW,258,0.0,1.0,91,0.00,,,0.00,54.00,VWS V14.00,2013-03-18 13:24:00,
2013-03-18 08:29:00,66.1,63.4,29.76,West,261,0.0,0.0,91,0.00,,,0.00,60.00,VWS V14.00,2013-03-18 13:29:00,
2013-03-18 08:34:00,66.2,63.5,29.77,WSW,256,0.0,0.0,91,0.00,,,0.00,74.00,VWS V14.00,2013-03-18 13:34:00,
2013-03-18 08:39:00,66.3,63.3,29.77,West,273,0.0,0.0,90,0.00,,,0.00,79.00,VWS V14.00,2013-03-18 13:39:00,
2013-03-18 08:44:00,66.4,63.4,29.77,West,271,0.0,0.0,90,0.00,,,0.00,84.00,VWS V14.00,2013-03-18 13:44:00,
2013-03-18 08:49:00,66.5,63.5,29.77,WSW,251,0.0,0.0,90,0.00,,,0.00,113.00,VWS V14.00,2013-03-18 13:49:00,
2013-03-18 08:54:00,66.7,63.7,29.77,West,268,0.0,0.0,90,0.00,,,0.00,104.00,VWS V14.00,2013-03-18 13:54:00,
2013-03-18 08:59:00,66.9,63.9,29.77,West,267,0.0,0.0,90,0.00,,,0.00,116.00,VWS V14.00,2013-03-18 13:59:00,
2013-03-18 09:04:00,67.1,63.8,29.77,West,260,0.0,0.0,89,0.00,,,0.00,116.00,VWS V14.00,2013-03-18 14:04:00,
2013-03-18 09:09:00,67.2,63.8,29.77,West,262,0.0,0.0,89,0.00,,,0.00,107.00,VWS V14.00,2013-03-18 14:09:00,
2013-03-18 09:14:00,67.3,63.6,29.77,West,266,0.0,0.0,88,0.00,,,0.00,116.00,VWS V14.00,2013-03-18 14:14:00,
2013-03-18 09:19:00,67.5,64.2,29.77,West,261,0.0,0.0,89,0.00,,,0.00,113.00,VWS V14.00,2013-03-18 14:19:00,
2013-03-18 09:24:00,67.7,64.0,29.77,West,267,0.0,0.0,88,0.00,,,0.00,156.00,VWS V14.00,2013-03-18 14:24:00,
2013-03-18 09:29:00,68.0,64.3,29.77,West,269,0.0,0.0,88,0.00,,,0.00,272.00,VWS V14.00,2013-03-18 14:29:00,
2013-03-18 09:34:00,68.6,64.6,29.77,WNW,282,0.0,0.0,87,0.00,,,0.00,287.00,VWS V14.00,2013-03-18 14:34:00,
2013-03-18 09:39:00,69.0,64.6,29.77,West,277,0.0,0.0,86,0.00,,,0.00,301.00,VWS V14.00,2013-03-18 14:39:00,
2013-03-18 09:44:00,69.4,64.7,29.77,SW,236,0.0,4.0,85,0.00,,,0.00,332.00,VWS V14.00,2013-03-18 14:44:00,
2013-03-18 09:49:00,69.8,65.1,29.77,West,277,0.0,0.0,85,0.00,,,0.00,348.00,VWS V14.00,2013-03-18 14:49:00,
2013-03-18 09:54:00,70.3,64.9,29.77,WSW,254,4.0,9.0,83,0.00,,,0.00,378.00,VWS V14.00,2013-03-18 14:54:00,
2013-03-18 09:59:00,70.7,65.3,29.77,WSW,254,0.0,0.0,83,0.00,,,0.00,397.00,VWS V14.00,2013-03-18 14:59:00,
2013-03-18 10:04:00,70.9,65.1,29.77,WSW,239,0.0,0.0,82,0.00,,,0.00,425.00,VWS V14.00,2013-03-18 15:04:00,
2013-03-18 10:09:00,71.1,65.0,29.77,West,279,0.0,0.0,81,0.00,,,0.00,427.00,VWS V14.00,2013-03-18 15:09:00,
2013-03-18 10:14:00,71.7,65.2,29.77,West,266,0.0,0.0,80,0.00,,,0.00,450.00,VWS V14.00,2013-03-18 15:14:00,
2013-03-18 10:19:00,72.1,65.6,29.78,WSW,246,1.0,7.0,80,0.00,,,0.00,473.00,VWS V14.00,2013-03-18 15:19:00,
2013-03-18 10:24:00,72.7,65.8,29.78,WSW,242,0.0,0.0,79,0.00,,,0.00,485.00,VWS V14.00,2013-03-18 15:24:00,
2013-03-18 10:29:00,73.1,65.5,29.78,West,264,0.0,6.0,77,0.00,,,0.00,506.00,VWS V14.00,2013-03-18 15:29:00,
2013-03-18 10:34:00,73.6,65.6,29.78,West,260,0.0,0.0,76,0.00,,,0.00,526.00,VWS V14.00,2013-03-18 15:34:00,
2013-03-18 10:39:00,74.4,66.0,29.78,West,266,0.0,0.0,75,0.00,,,0.00,536.00,VWS V14.00,2013-03-18 15:39:00,
2013-03-18 10:44:00,75.1,66.6,29.78,West,265,0.0,0.0,75,0.00,,,0.00,554.00,VWS V14.00,2013-03-18 15:44:00,
2013-03-18 10:48:00,75.8,65.7,29.78,SW,229,1.0,6.0,71,0.00,,,0.00,571.00,VWS V14.00,2013-03-18 15:48:00,
2013-03-18 10:53:00,76.6,66.1,29.78,WNW,290,0.0,0.0,70,0.00,,,0.00,594.00,VWS V14.00,2013-03-18 15:53:00,
2013-03-18 10:58:00,77.6,65.8,29.78,WNW,292,0.0,10.0,67,0.00,,,0.00,605.00,VWS V14.00,2013-03-18 15:58:00,
2013-03-18 11:03:00,77.8,64.7,29.78,WNW,302,0.0,0.0,64,0.00,,,0.00,615.00,VWS V14.00,2013-03-18 16:03:00,
2013-03-18 11:08:00,78.9,66.2,29.78,WNW,297,0.0,0.0,65,0.00,,,0.00,626.00,VWS V14.00,2013-03-18 16:08:00,
2013-03-18 11:13:00,79.8,65.2,29.78,WNW,301,0.0,0.0,61,0.00,,,0.00,642.00,VWS V14.00,2013-03-18 16:13:00,
2013-03-18 11:18:00,80.6,64.0,29.78,WNW,294,0.0,0.0,57,0.00,,,0.00,661.00,VWS V14.00,2013-03-18 16:18:00,
2013-03-18 11:23:00,81.0,60.6,29.78,NNE,15,5.0,7.0,50,0.00,,,0.00,677.00,VWS V14.00,2013-03-18 16:23:00,
2013-03-18 11:28:00,81.8,59.0,29.78,NW,325,0.0,15.0,46,0.00,,,0.00,686.00,VWS V14.00,2013-03-18 16:28:00,
2013-03-18 11:33:00,82.1,55.4,29.78,NNW,328,3.0,11.0,40,0.00,,,0.00,707.00,VWS V14.00,2013-03-18 16:33:00,
2013-03-18 11:38:00,82.4,57.7,29.78,North,9,0.0,6.0,43,0.00,,,0.00,710.00,VWS V14.00,2013-03-18 16:38:00,
2013-03-18 11:43:00,83.0,57.6,29.78,NNW,330,0.0,4.0,42,0.00,,,0.00,722.00,VWS V14.00,2013-03-18 16:43:00,
2013-03-18 11:48:00,83.0,58.2,29.78,North,351,0.0,8.0,43,0.00,,,0.00,735.00,VWS V14.00,2013-03-18 16:48:00,
2013-03-18 11:53:00,83.5,58.7,29.78,NNW,342,0.0,0.0,43,0.00,,,0.00,744.00,VWS V14.00,2013-03-18 16:53:00,
2013-03-18 11:58:00,83.4,57.9,29.78,NW,313,0.0,0.0,42,0.00,,,0.00,751.00,VWS V14.00,2013-03-18 16:58:00,
2013-03-18 12:03:00,83.9,59.0,29.78,NW,321,0.0,0.0,43,0.00,,,0.00,761.00,VWS V14.00,2013-03-18 17:03:00,
2013-03-18 12:08:00,84.4,59.5,29.78,North,360,0.0,0.0,43,0.00,,,0.00,770.00,VWS V14.00,2013-03-18 17:08:00,
2013-03-18 12:13:00,84.7,58.4,29.78,NNW,344,11.0,11.0,41,0.00,,,0.00,773.00,VWS V14.00,2013-03-18 17:13:00,
2013-03-18 12:18:00,84.9,57.2,29.78,NNE,22,0.0,0.0,39,0.00,,,0.00,786.00,VWS V14.00,2013-03-18 17:18:00,
2013-03-18 12:23:00,85.6,57.1,29.78,North,10,4.0,6.0,38,0.00,,,0.00,795.00,VWS V14.00,2013-03-18 17:23:00,
2013-03-18 12:28:00,85.5,56.3,29.78,North,360,0.0,0.0,37,0.00,,,0.00,221.00,VWS V14.00,2013-03-18 17:28:00,
2013-03-18 12:33:00,85.8,56.5,29.77,NNW,340,0.0,0.0,37,0.00,,,0.00,807.00,VWS V14.00,2013-03-18 17:33:00,
2013-03-18 12:38:00,85.7,56.5,29.77,North,9,7.0,10.0,37,0.00,,,0.00,810.00,VWS V14.00,2013-03-18 17:38:00,
2013-03-18 12:43:00,86.2,56.1,29.77,North,355,0.0,0.0,36,0.00,,,0.00,821.00,VWS V14.00,2013-03-18 17:43:00,
2013-03-18 12:48:00,86.7,55.0,29.77,North,5,0.0,8.0,34,0.00,,,0.00,824.00,VWS V14.00,2013-03-18 17:48:00,
2013-03-18 12:53:00,86.7,54.2,29.77,North,5,5.0,5.0,33,0.00,,,0.00,826.00,VWS V14.00,2013-03-18 17:53:00,
2013-03-18 12:58:00,87.1,53.7,29.77,NNE,21,6.0,13.0,32,0.00,,,0.00,830.00,VWS V14.00,2013-03-18 17:58:00,
2013-03-18 13:03:00,86.7,53.3,29.77,NE,38,5.0,13.0,32,0.00,,,0.00,831.00,VWS V14.00,2013-03-18 18:03:00,
2013-03-18 13:08:00,86.2,52.9,29.77,NNE,27,11.0,13.0,32,0.00,,,0.00,838.00,VWS V14.00,2013-03-18 18:08:00,
2013-03-18 13:13:00,86.5,52.3,29.77,ENE,57,0.0,7.0,31,0.00,,,0.00,846.00,VWS V14.00,2013-03-18 18:13:00,
2013-03-18 13:18:00,86.8,51.7,29.78,NNE,29,10.0,18.0,30,0.00,,,0.00,847.00,VWS V14.00,2013-03-18 18:18:00,
2013-03-18 13:23:00,86.2,51.2,29.78,North,5,0.0,0.0,30,0.00,,,0.00,846.00,VWS V14.00,2013-03-18 18:23:00,
2013-03-18 13:28:00,86.7,51.6,29.78,NE,35,6.0,11.0,30,0.00,,,0.00,849.00,VWS V14.00,2013-03-18 18:28:00,
2013-03-18 13:33:00,87.3,52.1,29.77,NE,41,11.0,15.0,30,0.00,,,0.00,849.00,VWS V14.00,2013-03-18 18:33:00,
2013-03-18 13:38:00,87.1,51.0,29.77,NE,36,0.0,0.0,29,0.00,,,0.00,851.00,VWS V14.00,2013-03-18 18:38:00,
2013-03-18 13:43:00,87.5,50.4,29.77,NE,53,9.0,12.0,28,0.00,,,0.00,853.00,VWS V14.00,2013-03-18 18:43:00,
2013-03-18 13:48:00,86.9,50.8,29.77,NNE,20,5.0,6.0,29,0.00,,,0.00,851.00,VWS V14.00,2013-03-18 18:48:00,
2013-03-18 13:53:00,86.6,50.6,29.77,NNE,30,14.0,16.0,29,0.00,,,0.00,847.00,VWS V14.00,2013-03-18 18:53:00,
2013-03-18 13:58:00,86.9,50.8,29.77,NNE,23,0.0,4.0,29,0.00,,,0.00,846.00,VWS V14.00,2013-03-18 18:58:00,
2013-03-18 14:03:00,87.7,51.5,29.76,NNE,29,3.0,8.0,29,0.00,,,0.00,842.00,VWS V14.00,2013-03-18 19:03:00,
2013-03-18 14:08:00,88.3,53.9,29.76,NNE,18,6.0,13.0,31,0.00,,,0.00,838.00,VWS V14.00,2013-03-18 19:08:00,
2013-03-18 14:13:00,88.0,51.8,29.76,NE,44,18.0,18.0,29,0.00,,,0.00,831.00,VWS V14.00,2013-03-18 19:13:00,
2013-03-18 14:18:00,87.5,52.3,29.76,NNE,32,10.0,10.0,30,0.00,,,0.00,833.00,VWS V14.00,2013-03-18 19:18:00,
2013-03-18 14:23:00,87.7,53.3,29.76,North,360,10.0,11.0,31,0.00,,,0.00,835.00,VWS V14.00,2013-03-18 19:23:00,
2013-03-18 14:28:00,87.4,52.2,29.76,North,5,10.0,10.0,30,0.00,,,0.00,826.00,VWS V14.00,2013-03-18 19:28:00,
2013-03-18 14:33:00,87.4,54.0,29.76,NE,35,0.0,6.0,32,0.00,,,0.00,821.00,VWS V14.00,2013-03-18 19:33:00,
2013-03-18 14:38:00,87.9,53.5,29.76,North,355,2.0,4.0,31,0.00,,,0.00,823.00,VWS V14.00,2013-03-18 19:38:00,
2013-03-18 14:43:00,87.7,50.6,29.76,NNE,19,1.0,8.0,28,0.00,,,0.00,810.00,VWS V14.00,2013-03-18 19:43:00,
2013-03-18 14:48:00,87.6,49.5,29.76,North,9,5.0,7.0,27,0.00,,,0.00,809.00,VWS V14.00,2013-03-18 19:48:00,
2013-03-18 14:53:00,88.0,48.8,29.76,NNE,13,12.0,13.0,26,0.00,,,0.00,802.00,VWS V14.00,2013-03-18 19:53:00,
2013-03-18 14:58:00,87.7,49.6,29.76,NE,48,6.0,17.0,27,0.00,,,0.00,796.00,VWS V14.00,2013-03-18 19:58:00,
2013-03-18 15:03:00,87.5,49.4,29.75,NE,52,12.0,13.0,27,0.00,,,0.00,791.00,VWS V14.00,2013-03-18 20:03:00,
2013-03-18 15:08:00,87.8,48.7,29.75,ENE,67,0.0,3.0,26,0.00,,,0.00,782.00,VWS V14.00,2013-03-18 20:08:00,
2013-03-18 15:13:00,87.1,47.0,29.75,NE,53,4.0,10.0,25,0.00,,,0.00,773.00,VWS V14.00,2013-03-18 20:13:00,
2013-03-18 15:18:00,86.4,51.3,29.75,East,96,4.0,10.0,30,0.00,,,0.00,761.00,VWS V14.00,2013-03-18 20:18:00,
2013-03-18 15:23:00,86.2,51.2,29.75,ESE,104,7.0,13.0,30,0.00,,,0.00,756.00,VWS V14.00,2013-03-18 20:23:00,
2013-03-18 15:28:00,86.9,48.9,29.75,NNE,22,7.0,12.0,27,0.00,,,0.00,661.00,VWS V14.00,2013-03-18 20:28:00,
2013-03-18 15:33:00,86.6,50.6,29.75,East,85,0.0,0.0,29,0.00,,,0.00,719.00,VWS V14.00,2013-03-18 20:33:00,
2013-03-18 15:38:00,86.2,49.3,29.75,NNE,31,3.0,11.0,28,0.00,,,0.00,645.00,VWS V14.00,2013-03-18 20:38:00,
2013-03-18 15:43:00,86.5,49.6,29.75,NNE,25,11.0,11.0,28,0.00,,,0.00,448.00,VWS V14.00,2013-03-18 20:43:00,
2013-03-18 15:48:00,86.3,50.3,29.75,ENE,67,12.0,13.0,29,0.00,,,0.00,431.00,VWS V14.00,2013-03-18 20:48:00,
2013-03-18 15:53:00,85.9,50.9,29.75,North,11,0.0,0.0,30,0.00,,,0.00,345.00,VWS V14.00,2013-03-18 20:53:00,
2013-03-18 15:58:00,85.4,51.4,29.75,ENE,74,5.0,5.0,31,0.00,,,0.00,330.00,VWS V14.00,2013-03-18 20:58:00,
2013-03-18 16:03:00,85.2,50.3,29.75,ENE,78,5.0,8.0,30,0.00,,,0.00,355.00,VWS V14.00,2013-03-18 21:03:00,
2013-03-18 16:08:00,84.7,50.8,29.75,NE,53,0.0,0.0,31,0.00,,,0.00,367.00,VWS V14.00,2013-03-18 21:08:00,
2013-03-18 16:13:00,84.9,50.0,29.75,NE,42,11.0,12.0,30,0.00,,,0.00,446.00,VWS V14.00,2013-03-18 21:13:00,
2013-03-18 16:18:00,85.0,50.1,29.75,ENE,71,5.0,9.0,30,0.00,,,0.00,483.00,VWS V14.00,2013-03-18 21:18:00,
2013-03-18 16:23:00,85.4,49.6,29.75,ENE,67,12.0,13.0,29,0.00,,,0.00,592.00,VWS V14.00,2013-03-18 21:23:00,
2013-03-18 16:28:00,85.5,49.7,29.75,NE,38,9.0,9.0,29,0.00,,,0.00,476.00,VWS V14.00,2013-03-18 21:28:00,
2013-03-18 16:33:00,85.3,48.5,29.76,NE,46,16.0,16.0,28,0.00,,,0.00,432.00,VWS V14.00,2013-03-18 21:33:00,
2013-03-18 16:38:00,84.7,48.0,29.76,East,80,3.0,4.0,28,0.00,,,0.00,271.00,VWS V14.00,2013-03-18 21:38:00,
2013-03-18 16:43:00,84.5,48.8,29.76,NE,40,14.0,14.0,29,0.00,,,0.00,107.00,VWS V14.00,2013-03-18 21:43:00,
2013-03-18 16:48:00,83.7,48.1,29.77,NE,34,1.0,4.0,29,0.00,,,0.00,278.00,VWS V14.00,2013-03-18 21:48:00,
2013-03-18 16:53:00,83.9,49.2,29.77,ENE,57,11.0,14.0,30,0.00,,,0.00,176.00,VWS V14.00,2013-03-18 21:53:00,
2013-03-18 16:58:00,84.1,49.3,29.77,ENE,64,5.0,5.0,30,0.00,,,0.00,135.00,VWS V14.00,2013-03-18 21:58:00,
2013-03-18 17:03:00,83.6,48.9,29.78,NE,51,3.0,3.0,30,0.00,,,0.00,165.00,VWS V14.00,2013-03-18 22:03:00,
2013-03-18 17:08:00,83.9,49.2,29.78,ENE,70,6.0,6.0,30,0.00,,,0.00,118.00,VWS V14.00,2013-03-18 22:08:00,
2013-03-18 17:13:00,83.7,48.1,29.78,NE,47,0.0,0.0,29,0.00,,,0.00,125.00,VWS V14.00,2013-03-18 22:13:00,
2013-03-18 17:18:00,83.5,48.8,29.78,NE,40,6.0,7.0,30,0.00,,,0.00,107.00,VWS V14.00,2013-03-18 22:18:00,
2013-03-18 17:23:00,82.9,47.4,29.78,ENE,66,12.0,12.0,29,0.00,,,0.00,102.00,VWS V14.00,2013-03-18 22:23:00,
2013-03-18 17:28:00,82.5,48.0,29.78,East,82,0.0,0.0,30,0.00,,,0.00,128.00,VWS V14.00,2013-03-18 22:28:00,
2013-03-18 17:33:00,82.5,48.8,29.79,ENE,70,7.0,11.0,31,0.00,,,0.00,186.00,VWS V14.00,2013-03-18 22:33:00,
2013-03-18 17:38:00,82.9,49.2,29.79,NE,51,2.0,2.0,31,0.00,,,0.00,206.00,VWS V14.00,2013-03-18 22:38:00,
2013-03-18 17:43:00,82.9,49.2,29.79,NE,45,3.0,3.0,31,0.00,,,0.00,128.00,VWS V14.00,2013-03-18 22:43:00,
2013-03-18 17:48:00,82.7,49.0,29.80,East,83,0.0,0.0,31,0.00,,,0.00,125.00,VWS V14.00,2013-03-18 22:48:00,
2013-03-18 17:53:00,82.3,48.7,29.80,NE,52,0.0,0.0,31,0.00,,,0.00,132.00,VWS V14.00,2013-03-18 22:53:00,
2013-03-18 17:58:00,82.1,49.3,29.80,NE,53,3.0,4.0,32,0.00,,,0.00,113.00,VWS V14.00,2013-03-18 22:58:00,
2013-03-18 18:03:00,82.0,49.3,29.80,ENE,59,4.0,4.0,32,0.00,,,0.00,107.00,VWS V14.00,2013-03-18 23:03:00,
2013-03-18 18:08:00,81.6,48.9,29.80,ENE,70,0.0,0.0,32,0.00,,,0.00,107.00,VWS V14.00,2013-03-18 23:08:00,
2013-03-18 18:13:00,81.3,49.5,29.80,East,84,0.0,0.0,33,0.00,,,0.00,93.00,VWS V14.00,2013-03-18 23:13:00,
2013-03-18 18:18:00,81.1,49.3,29.81,ENE,71,12.0,12.0,33,0.00,,,0.00,97.00,VWS V14.00,2013-03-18 23:18:00,
2013-03-18 18:23:00,80.9,49.1,29.81,ENE,65,0.0,0.0,33,0.00,,,0.00,86.00,VWS V14.00,2013-03-18 23:23:00,
2013-03-18 18:28:00,80.7,50.5,29.81,ENE,78,13.0,13.0,35,0.00,,,0.00,90.00,VWS V14.00,2013-03-18 23:28:00,
2013-03-18 18:33:00,80.2,50.8,29.82,East,84,2.0,3.0,36,0.00,,,0.00,81.00,VWS V14.00,2013-03-18 23:33:00,
2013-03-18 18:38:00,79.7,51.2,29.82,East,95,0.0,11.0,37,0.00,,,0.00,77.00,VWS V14.00,2013-03-18 23:38:00,
2013-03-18 18:43:00,79.3,50.8,29.82,East,91,5.0,15.0,37,0.00,,,0.00,81.00,VWS V14.00,2013-03-18 23:43:00,
2013-03-18 18:48:00,78.7,51.0,29.83,East,94,10.0,10.0,38,0.00,,,0.00,79.00,VWS V14.00,2013-03-18 23:48:00,
2013-03-18 18:53:00,78.5,50.8,29.83,ENE,70,0.0,2.0,38,0.00,,,0.00,53.00,VWS V14.00,2013-03-18 23:53:00,
2013-03-18 18:58:00,78.1,50.5,29.83,East,88,4.0,4.0,38,0.00,,,0.00,39.00,VWS V14.00,2013-03-18 23:58:00,
2013-03-18 19:03:00,77.6,50.7,29.84,ENE,78,9.0,14.0,39,0.00,,,0.00,30.00,VWS V14.00,2013-03-19 00:03:00,
2013-03-18 19:08:00,77.1,50.9,29.84,NE,51,6.0,10.0,40,0.00,,,0.00,39.00,VWS V14.00,2013-03-19 00:08:00,
2013-03-18 19:13:00,76.9,50.8,29.84,ENE,77,4.0,6.0,40,0.00,,,0.00,46.00,VWS V14.00,2013-03-19 00:13:00,
2013-03-18 19:18:00,76.7,50.6,29.85,East,82,11.0,14.0,40,0.00,,,0.00,40.00,VWS V14.00,2013-03-19 00:18:00,
2013-03-18 19:23:00,76.4,50.3,29.85,NE,52,11.0,12.0,40,0.00,,,0.00,40.00,VWS V14.00,2013-03-19 00:23:00,
2013-03-18 19:28:00,76.2,50.8,29.85,ENE,72,4.0,5.0,41,0.00,,,0.00,26.00,VWS V14.00,2013-03-19 00:28:00,
2013-03-18 19:33:00,75.8,51.1,29.85,East,89,5.0,7.0,42,0.00,,,0.00,14.00,VWS V14.00,2013-03-19 00:33:00,
2013-03-18 19:38:00,75.4,51.4,29.85,ENE,73,14.0,14.0,43,0.00,,,0.00,5.00,VWS V14.00,2013-03-19 00:38:00,
2013-03-18 19:43:00,75.0,51.0,29.85,NE,56,10.0,11.0,43,0.00,,,0.00,0.00,VWS V14.00,2013-03-19 00:43:00,
2013-03-18 19:48:00,74.5,51.2,29.86,ENE,76,14.0,17.0,44,0.00,,,0.00,0.00,VWS V14.00,2013-03-19 00:48:00,
2013-03-18 19:53:00,74.2,50.9,29.86,ENE,67,11.0,12.0,44,0.00,,,0.00,0.00,VWS V14.00,2013-03-19 00:53:00,
2013-03-18 19:58:00,73.9,51.2,29.86,ENE,66,3.0,10.0,45,0.00,,,0.00,0.00,VWS V14.00,2013-03-19 00:58:00,
2013-03-18 20:03:00,73.5,50.9,29.85,ENE,68,5.0,11.0,45,0.00,,,0.00,0.00,VWS V14.00,2013-03-19 01:03:00,
2013-03-18 20:08:00,73.3,51.3,29.85,ENE,57,4.0,16.0,46,0.00,,,0.00,0.00,VWS V14.00,2013-03-19 01:08:00,
2013-03-18 20:13:00,73.1,51.1,29.85,ENE,65,2.0,12.0,46,0.00,,,0.00,0.00,VWS V14.00,2013-03-19 01:13:00,
2013-03-18 20:18:00,72.8,51.4,29.87,East,82,11.0,17.0,47,0.00,,,0.00,0.00,VWS V14.00,2013-03-19 01:18:00,
2013-03-18 20:23:00,72.5,51.2,29.87,ENE,60,3.0,15.0,47,0.00,,,0.00,0.00,VWS V14.00,2013-03-19 01:23:00,
2013-03-18 20:28:00,72.3,51.0,29.87,ENE,76,11.0,14.0,47,0.00,,,0.00,0.00,VWS V14.00,2013-03-19 01:28:00,
2013-03-18 20:33:00,72.0,51.3,29.88,ENE,61,0.0,0.0,48,0.00,,,0.00,0.00,VWS V14.00,2013-03-19 01:33:00,
2013-03-18 20:38:00,71.8,51.1,29.88,ENE,73,5.0,9.0,48,0.00,,,0.00,0.00,VWS V14.00,2013-03-19 01:38:00,
2013-03-18 20:43:00,71.5,51.4,29.88,ESE,102,6.0,10.0,49,0.00,,,0.00,0.00,VWS V14.00,2013-03-19 01:43:00,
2013-03-18 20:48:00,71.2,51.1,29.88,ENE,57,7.0,13.0,49,0.00,,,0.00,0.00,VWS V14.00,2013-03-19 01:48:00,
2013-03-18 20:53:00,71.0,51.5,29.88,ENE,67,0.0,0.0,50,0.00,,,0.00,0.00,VWS V14.00,2013-03-19 01:53:00,
2013-03-18 20:58:00,70.6,51.6,29.88,ENE,72,4.0,5.0,51,0.00,,,0.00,0.00,VWS V14.00,2013-03-19 01:58:00,
2013-03-18 21:03:00,70.3,51.3,29.89,ENE,78,9.0,10.0,51,0.00,,,0.00,0.00,VWS V14.00,2013-03-19 02:03:00,
2013-03-18 21:08:00,70.0,51.1,29.89,East,84,0.0,7.0,51,0.00,,,0.00,0.00,VWS V14.00,2013-03-19 02:08:00,
2013-03-18 21:13:00,69.7,50.8,29.89,ENE,74,0.0,0.0,51,0.00,,,0.00,0.00,VWS V14.00,2013-03-19 02:13:00,
2013-03-18 21:18:00,69.5,50.1,29.90,ENE,68,0.0,6.0,50,0.00,,,0.00,0.00,VWS V14.00,2013-03-19 02:18:00,
2013-03-18 21:23:00,69.4,50.5,29.90,ENE,65,2.0,6.0,51,0.00,,,0.00,0.00,VWS V14.00,2013-03-19 02:23:00,
2013-03-18 21:28:00,69.1,50.2,29.90,ENE,68,0.0,10.0,51,0.00,,,0.00,0.00,VWS V14.00,2013-03-19 02:28:00,
2013-03-18 21:33:00,68.9,50.0,29.90,East,84,0.0,4.0,51,0.00,,,0.00,0.00,VWS V14.00,2013-03-19 02:33:00,
2013-03-18 21:38:00,68.6,49.8,29.90,East,83,0.0,0.0,51,0.00,,,0.00,0.00,VWS V14.00,2013-03-19 02:38:00,
2013-03-18 21:43:00,68.4,49.6,29.90,ENE,69,1.0,10.0,51,0.00,,,0.00,0.00,VWS V14.00,2013-03-19 02:43:00,
2013-03-18 21:48:00,68.1,49.8,29.90,ENE,76,0.0,0.0,52,0.00,,,0.00,0.00,VWS V14.00,2013-03-19 02:48:00,
2013-03-18 21:53:00,67.9,49.7,29.90,ENE,74,0.0,0.0,52,0.00,,,0.00,0.00,VWS V14.00,2013-03-19 02:53:00,
2013-03-18 21:58:00,67.6,49.4,29.90,ENE,66,0.0,0.0,52,0.00,,,0.00,0.00,VWS V14.00,2013-03-19 02:58:00,
2013-03-18 22:03:00,67.2,49.5,29.91,ENE,68,3.0,4.0,53,0.00,,,0.00,0.00,VWS V14.00,2013-03-19 03:03:00,
2013-03-18 22:08:00,67.1,49.4,29.91,ENE,65,3.0,12.0,53,0.00,,,0.00,0.00,VWS V14.00,2013-03-19 03:08:00,
2013-03-18 22:13:00,67.0,49.3,29.91,ENE,58,0.0,2.0,53,0.00,,,0.00,0.00,VWS V14.00,2013-03-19 03:13:00,
2013-03-18 22:18:00,66.7,49.0,29.91,ENE,75,5.0,11.0,53,0.00,,,0.00,0.00,VWS V14.00,2013-03-19 03:18:00,
2013-03-18 22:23:00,66.5,49.4,29.91,East,87,4.0,11.0,54,0.00,,,0.00,0.00,VWS V14.00,2013-03-19 03:23:00,
2013-03-18 22:28:00,66.3,49.2,29.91,ENE,74,0.0,4.0,54,0.00,,,0.00,0.00,VWS V14.00,2013-03-19 03:28:00,
2013-03-18 22:33:00,66.1,49.0,29.91,NE,55,0.0,9.0,54,0.00,,,0.00,0.00,VWS V14.00,2013-03-19 03:33:00,
2013-03-18 22:38:00,65.9,48.8,29.91,ENE,69,3.0,10.0,54,0.00,,,0.00,0.00,VWS V14.00,2013-03-19 03:38:00,
2013-03-18 22:43:00,65.7,49.1,29.91,East,96,3.0,12.0,55,0.00,,,0.00,0.00,VWS V14.00,2013-03-19 03:43:00,
2013-03-18 22:48:00,65.6,49.0,29.92,ENE,77,2.0,5.0,55,0.00,,,0.00,0.00,VWS V14.00,2013-03-19 03:48:00,
2013-03-18 22:53:00,65.3,48.7,29.92,ENE,61,0.0,3.0,55,0.00,,,0.00,0.00,VWS V14.00,2013-03-19 03:53:00,
2013-03-18 22:58:00,65.1,49.0,29.92,East,84,4.0,10.0,56,0.00,,,0.00,0.00,VWS V14.00,2013-03-19 03:58:00,
2013-03-18 23:00:00,65.0,48.9,29.92,East,92,5.0,6.0,56,0.00,,,0.00,0.00,VWS V14.00,2013-03-19 04:00:00,
2013-03-18 23:05:00,64.7,48.7,29.93,ENE,67,2.0,9.0,56,0.00,,,0.00,0.00,VWS V14.00,2013-03-19 04:05:00,
2013-03-18 23:10:00,64.5,49.0,29.93,East,101,0.0,0.0,57,0.00,,,0.00,0.00,VWS V14.00,2013-03-19 04:10:00,
2013-03-18 23:15:00,64.3,48.8,29.93,East,80,0.0,10.0,57,0.00,,,0.00,0.00,VWS V14.00,2013-03-19 04:15:00,
2013-03-18 23:20:00,64.3,48.8,29.93,East,84,2.0,3.0,57,0.00,,,0.00,0.00,VWS V14.00,2013-03-19 04:20:00,
2013-03-18 23:25:00,64.1,48.6,29.93,ENE,78,0.0,0.0,57,0.00,,,0.00,0.00,VWS V14.00,2013-03-19 04:25:00,
2013-03-18 23:30:00,64.0,48.5,29.93,East,96,1.0,4.0,57,0.00,,,0.00,0.00,VWS V14.00,2013-03-19 04:30:00,
2013-03-18 23:35:00,63.8,48.3,29.93,ENE,64,13.0,14.0,57,0.00,,,0.00,0.00,VWS V14.00,2013-03-19 04:35:00,
2013-03-18 23:40:00,63.8,48.3,29.93,East,90,1.0,12.0,57,0.00,,,0.00,0.00,VWS V14.00,2013-03-19 04:40:00,
2013-03-18 23:45:00,63.7,48.2,29.92,ESE,105,0.0,11.0,57,0.00,,,0.00,0.00,VWS V14.00,2013-03-19 04:45:00,
2013-03-18 23:50:00,63.6,48.1,29.92,ENE,71,5.0,5.0,57,0.00,,,0.00,0.00,VWS V14.00,2013-03-19 04:50:00,
2013-03-18 23:55:00,63.4,47.9,29.92,ENE,75,5.0,6.0,57,0.00,,,0.00,0.00,VWS V14.00,2013-03-19 04:55:00,